period_start,C,m1,H,J0,J1,J2,J3,J4,J5,JA,JB,JC,JD,JJ,JK,JN,#
2017-10-26 00:00:44,0.07,1.51,0.00,17.21,20.85,24.24,14.05,47.43,1002.93,2055.01,2979.66,2711.95,3109.37,599.75,599.56,26.37,0000 0000 0000 0000 000000
2017-10-26 00:05:45,0.07,1.52,0.00,17.24,20.85,24.23,14.10,47.51,1002.82,2055.00,2978.42,2711.05,3108.24,600.19,599.76,26.42,0000 0000 0000 0000 000000
2017-10-26 00:10:47,0.07,1.52,0.00,17.20,20.84,24.20,14.08,47.45,1002.91,2055.01,2977.16,2710.16,3107.18,600.10,599.90,26.47,0000 0000 0000 0000 000000
2017-10-26 00:15:48,0.07,1.52,0.00,17.22,20.84,24.20,14.07,47.60,1002.88,2055.01,2975.87,2709.30,3106.12,600.14,599.81,26.52,0000 0000 0000 0000 000000
2017-10-26 00:20:49,0.08,1.53,0.00,17.21,20.83,24.22,14.14,47.75,1002.62,2055.01,2974.41,2708.32,3104.88,600.21,599.76,26.57,0000 0000 0000 0000 000000
2017-10-26 00:25:51,0.07,1.53,0.00,17.21,20.82,24.20,14.08,47.66,1002.46,2055.02,2973.08,2707.39,3103.73,599.86,599.25,26.62,0000 0000 0000 0000 000000
2017-10-26 00:30:52,0.08,1.53,0.00,17.20,20.82,24.19,14.05,47.63,1002.48,2055.03,2971.72,2706.42,3102.57,599.93,599.52,26.67,0000 0000 0000 0000 000000
2017-10-26 00:35:53,0.08,1.54,0.00,17.15,20.81,24.17,14.08,47.60,1002.76,2055.10,2970.49,2705.52,3101.49,600.07,599.79,26.72,0000 0000 0000 0000 000000
2017-10-26 00:40:55,0.07,1.54,0.00,17.18,20.79,24.13,14.09,47.59,1002.85,2055.19,2969.31,2704.68,3100.53,600.12,599.88,26.77,0000 0000 0000 0000 000000
2017-10-26 00:45:56,0.06,1.55,0.00,17.21,20.79,24.13,14.00,47.42,1002.93,2055.21,2967.97,2703.87,3099.44,599.83,599.64,26.82,0000 0000 0000 0000 000000
2017-10-26 00:50:57,0.07,1.55,0.00,17.16,20.77,24.14,14.13,47.54,1002.94,2055.21,2966.67,2702.98,3098.26,600.32,600.06,26.87,0000 0000 0000 0000 000000
2017-10-26 00:55:58,0.05,1.55,0.00,17.14,20.77,24.09,14.13,47.52,1002.93,2055.16,2965.44,2702.10,3097.27,600.17,600.10,26.92,0000 0000 0000 0000 000000
2017-10-26 01:00:59,0.11,1.56,0.00,17.18,20.76,24.07,14.18,47.61,1002.83,2055.44,2964.17,2701.18,3096.22,600.44,600.13,26.97,0000 0000 0000 0000 000000
2017-10-26 01:06:01,0.09,1.56,0.00,17.18,20.74,24.04,14.05,47.70,1002.68,2055.67,2962.88,2700.33,3095.13,599.68,599.33,27.02,0000 0000 0000 0000 000000
2017-10-26 01:11:02,0.07,1.57,0.00,17.14,20.74,24.07,14.15,47.73,1002.77,2055.77,2961.60,2699.45,3094.06,600.27,599.89,27.07,0000 0000 0000 0000 000000
2017-10-26 01:16:03,0.06,1.57,0.00,17.14,20.74,24.06,14.11,47.73,1002.89,2055.73,2960.44,2698.63,3093.02,600.08,599.95,27.12,0000 0000 0000 0000 000000
2017-10-26 01:21:04,0.06,1.57,0.00,17.19,20.72,24.05,14.14,47.82,1002.82,2055.71,2959.14,2697.79,3091.96,600.21,599.98,27.17,0000 0000 0000 0000 000000
2017-10-26 01:26:06,0.09,1.58,0.00,17.16,20.72,24.03,14.01,47.79,1002.75,2055.86,2957.78,2696.96,3090.96,599.91,599.73,27.22,0000 0000 0000 0000 000000
2017-10-26 01:31:07,0.08,1.58,0.00,17.20,20.72,23.98,14.14,47.88,1002.75,2055.95,2956.61,2696.08,3089.96,600.23,599.90,27.27,0000 0000 0000 0000 000000
2017-10-26 01:36:09,0.07,1.59,0.00,17.27,20.71,23.97,13.96,47.83,1002.69,2055.95,2955.35,2695.22,3089.01,599.78,599.25,27.32,0000 0000 0000 0000 000000
2017-10-26 01:41:10,0.06,1.59,0.00,17.20,20.70,23.93,14.10,47.92,1002.80,2055.95,2954.18,2694.52,3088.00,600.18,599.92,27.37,0000 0000 0000 0000 000000
2017-10-26 01:46:11,0.07,1.59,0.00,17.22,20.69,23.92,14.04,47.97,1002.92,2055.93,2952.85,2693.65,3086.88,599.76,599.60,27.42,0000 0000 0000 0000 000000
2017-10-26 01:51:13,0.06,1.60,0.00,17.25,20.69,23.87,14.06,47.84,1002.94,2055.94,2951.62,2692.82,3085.89,599.76,599.36,27.47,0000 0000 0000 0000 000000
2017-10-26 01:56:14,0.06,1.60,0.00,17.26,20.69,23.84,14.00,47.75,1002.86,2055.93,2950.38,2691.98,3084.90,599.59,599.26,27.52,0000 0000 0000 0000 000000
2017-10-26 02:01:15,0.07,1.60,0.00,17.22,20.69,23.82,14.04,47.88,1002.70,2055.95,2949.16,2691.09,3083.85,599.97,599.61,27.57,0000 0000 0000 0000 000000
2017-10-26 02:06:17,0.08,1.61,0.00,17.30,20.69,23.84,13.97,47.59,1002.75,2055.97,2947.78,2690.18,3082.78,599.97,599.30,27.62,0000 0000 0000 0000 000000
2017-10-26 02:11:18,0.07,1.61,0.00,17.25,20.69,23.80,14.06,47.57,1002.86,2055.95,2946.48,2689.26,3081.75,599.92,599.53,27.67,0000 0000 0000 0000 000000
2017-10-26 02:16:19,0.07,1.61,0.00,17.24,20.69,23.88,14.06,47.41,1002.79,2055.97,2945.26,2688.41,3080.70,600.13,599.74,27.72,0000 0000 0000 0000 000000
2017-10-26 02:21:20,0.07,1.62,0.00,17.32,20.69,23.82,14.06,47.42,1002.61,2055.97,2943.94,2687.55,3079.67,600.02,599.26,27.77,0000 0000 0000 0000 000000
2017-10-26 02:26:22,0.06,1.62,0.00,17.32,20.69,23.74,14.06,47.32,1002.48,2055.98,2942.72,2686.78,3078.60,599.74,598.93,27.82,0000 0000 0000 0000 000000
2017-10-26 02:31:23,0.07,1.62,0.00,17.29,20.69,23.75,14.06,47.52,1002.46,2055.97,2941.40,2685.79,3077.45,599.97,599.26,27.87,0000 0000 0000 0000 000000
2017-10-26 02:36:24,0.08,1.63,0.00,17.29,20.69,23.79,14.08,47.58,1002.24,2055.96,2939.92,2684.82,3076.32,600.29,599.33,27.92,0000 0000 0000 0000 000000
2017-10-26 02:41:25,0.07,1.63,0.00,17.28,20.69,23.81,14.07,47.61,1001.99,2055.96,2938.58,2683.85,3075.15,599.97,598.96,27.97,0000 0000 0000 0000 000000
2017-10-26 02:46:27,0.07,1.64,0.00,17.30,20.69,23.77,14.00,47.59,1001.97,2055.96,2937.21,2682.90,3074.03,599.65,598.62,28.02,0000 0000 0000 0000 000000
2017-10-26 02:51:28,0.09,1.64,0.00,17.23,20.70,23.87,14.04,47.44,1001.97,2055.97,2935.71,2681.87,3072.80,600.05,599.21,28.07,0000 0000 0000 0000 000000
2017-10-26 02:56:30,0.06,1.64,0.00,17.25,20.70,23.87,14.08,47.60,1001.97,2055.98,2934.40,2680.95,3071.70,600.33,599.28,28.12,0000 0000 0000 0000 000000
2017-10-26 03:01:31,0.07,1.65,0.00,17.26,20.70,23.90,14.05,47.49,1001.82,2055.98,2933.00,2680.03,3070.73,600.05,598.96,28.17,0000 0000 0000 0000 000000
2017-10-26 03:06:32,0.08,1.65,0.00,17.17,20.70,23.89,14.05,47.55,1001.49,2055.98,2931.64,2679.10,3069.64,599.82,598.89,28.22,0000 0000 0000 0000 000000
2017-10-26 03:11:33,0.07,1.66,0.00,17.16,20.71,23.98,14.05,47.71,1001.48,2055.98,2930.27,2678.07,3068.60,599.73,598.69,28.27,0000 0000 0000 0000 000000
2017-10-26 03:16:35,0.08,1.66,0.00,17.20,20.70,23.98,14.11,47.60,1001.48,2055.98,2928.83,2677.03,3067.35,600.15,599.12,28.32,0000 0000 0000 0000 000000
2017-10-26 03:21:36,0.07,1.66,0.00,17.18,20.70,24.04,14.04,47.67,1001.47,2055.98,2927.44,2676.05,3066.10,600.01,598.91,28.37,0000 0000 0000 0000 000000
2017-10-26 03:26:37,0.08,1.67,0.00,17.16,20.70,24.00,14.09,47.72,1001.44,2055.98,2926.00,2675.02,3064.88,600.06,599.01,28.42,0000 0000 0000 0000 000000
2017-10-26 03:31:39,0.08,1.67,0.00,17.18,20.70,24.01,14.09,47.64,1001.45,2055.99,2924.59,2674.04,3063.76,600.16,599.13,28.47,0000 0000 0000 0000 000000
2017-10-26 03:36:40,0.08,1.68,0.00,17.17,20.69,24.01,14.03,47.54,1001.38,2055.99,2923.26,2673.06,3062.57,600.03,598.85,28.52,0000 0000 0000 0000 000000
2017-10-26 03:41:41,0.08,1.68,0.00,17.16,20.69,24.00,13.98,47.42,1001.24,2055.99,2921.68,2672.07,3061.33,599.88,598.69,28.57,0000 0000 0000 0000 000000
2017-10-26 03:46:42,0.07,1.69,0.00,17.14,20.69,24.01,13.96,47.51,1001.02,2055.99,2920.33,2671.08,3060.10,599.71,598.44,28.62,0000 0000 0000 0000 000000
2017-10-26 03:51:44,0.09,1.69,0.00,17.14,20.69,23.99,14.06,47.40,1000.99,2055.99,2918.76,2669.97,3058.79,600.11,598.83,28.68,0000 0000 0000 0000 000000
2017-10-26 03:56:45,0.07,1.69,0.00,17.12,20.69,24.00,14.08,47.53,1000.98,2055.99,2917.24,2668.93,3057.57,600.07,598.94,28.73,0000 0000 0000 0000 000000
2017-10-26 04:01:47,0.08,1.70,0.00,17.11,20.69,24.01,14.01,47.52,1000.88,2055.99,2915.66,2667.93,3056.32,599.89,598.60,28.78,0000 0000 0000 0000 000000
2017-10-26 04:06:48,0.08,1.70,0.00,17.14,20.68,23.97,14.06,47.43,1000.84,2055.99,2914.13,2666.86,3055.10,600.04,598.67,28.83,0000 0000 0000 0000 000000
2017-10-26 04:11:50,0.07,1.71,0.00,17.13,20.67,23.95,14.06,47.41,1000.78,2055.99,2912.68,2665.91,3053.86,600.06,598.62,28.88,0000 0000 0000 0000 000000
2017-10-26 04:16:51,0.09,1.71,0.00,17.08,20.67,23.97,14.02,47.55,1000.80,2055.99,2911.35,2664.80,3052.60,599.88,598.57,28.93,0000 0000 0000 0000 000000
2017-10-26 04:21:52,0.08,1.72,0.00,17.06,20.67,24.00,14.09,47.59,1000.92,2056.00,2909.72,2663.76,3051.36,600.17,599.06,28.98,0000 0000 0000 0000 000000
2017-10-26 04:26:53,0.07,1.72,0.00,17.09,20.67,24.03,14.09,47.60,1000.99,2056.00,2908.25,2662.75,3050.11,599.93,598.75,29.03,0000 0000 0000 0000 000000
2017-10-26 04:31:54,0.07,1.72,0.00,17.09,20.66,23.97,14.05,47.62,1000.98,2056.00,2906.79,2661.80,3048.88,600.18,599.01,29.08,0000 0000 0000 0000 000000
2017-10-26 04:36:56,0.09,1.73,0.00,17.05,20.65,24.00,14.10,47.59,1000.99,2056.00,2905.29,2660.69,3047.68,599.92,598.81,29.13,0000 0000 0000 0000 000000
2017-10-26 04:41:57,0.09,1.73,0.00,17.08,20.64,23.95,14.03,47.63,1000.99,2056.01,2903.76,2659.61,3046.30,600.16,599.01,29.18,0000 0000 0000 0000 000000
2017-10-26 04:46:58,0.07,1.74,0.00,17.10,20.64,23.95,14.06,47.52,1000.99,2056.02,2902.39,2658.73,3045.22,600.13,598.87,29.23,0000 0000 0000 0000 000000
2017-10-26 04:52:00,0.08,1.74,0.00,17.11,20.64,23.93,14.02,47.52,1000.99,2056.02,2900.90,2657.69,3044.04,599.66,598.57,29.28,0000 0000 0000 0000 000000
2017-10-26 04:57:01,0.08,1.74,0.00,17.11,20.64,23.92,14.09,47.60,1001.00,2056.02,2899.58,2656.78,3042.88,599.88,598.65,29.33,0000 0000 0000 0000 000000
2017-10-26 05:02:02,0.06,1.75,0.00,17.17,20.62,23.85,14.09,47.55,1001.05,2056.01,2898.30,2655.92,3041.78,599.96,598.72,29.38,0000 0000 0000 0000 000000
2017-10-26 05:07:03,0.08,1.75,0.00,17.17,20.62,23.74,14.04,47.48,1001.05,2056.01,2896.90,2654.94,3040.70,599.94,598.64,29.43,0000 0000 0000 0000 000000
2017-10-26 05:12:04,0.07,1.76,0.00,17.16,20.62,23.80,14.01,47.53,1001.04,2056.02,2895.58,2653.95,3039.61,599.97,598.65,29.48,0000 0000 0000 0000 000000
2017-10-26 05:17:06,0.07,1.76,0.00,17.22,20.62,23.74,14.08,47.54,1001.20,2056.03,2894.27,2653.06,3038.40,599.91,598.62,29.53,0000 0000 0000 0000 000000
2017-10-26 05:22:07,0.07,1.77,0.00,17.25,20.62,23.64,13.98,47.55,1001.18,2056.01,2892.96,2652.19,3037.32,600.27,598.79,29.58,0000 0000 0000 0000 000000
2017-10-26 05:27:08,0.07,1.77,0.00,17.27,20.62,23.63,14.02,47.42,1001.10,2056.03,2891.63,2651.24,3036.17,599.98,598.52,29.63,0000 0000 0000 0000 000000
2017-10-26 05:32:09,0.08,1.77,0.00,17.30,20.62,23.59,13.98,47.51,1001.01,2056.03,2890.26,2650.32,3035.05,600.12,598.53,29.68,0000 0000 0000 0000 000000
2017-10-26 05:37:10,0.07,1.78,0.00,17.34,20.64,23.60,14.03,47.52,1000.99,2056.04,2888.98,2649.47,3033.95,600.20,598.43,29.73,0000 0000 0000 0000 000000
2017-10-26 05:42:12,0.08,1.78,0.00,17.32,20.64,23.61,13.95,47.38,1000.99,2056.02,2887.67,2648.48,3032.85,600.03,598.31,29.78,0000 0000 0000 0000 000000
2017-10-26 05:47:13,0.06,1.78,0.00,17.35,20.64,23.62,14.02,47.56,1000.98,2056.01,2886.46,2647.67,3031.80,600.20,598.56,29.83,0000 0000 0000 0000 000000
2017-10-26 05:52:14,0.07,1.79,0.00,17.35,20.65,23.62,13.96,47.60,1000.95,2056.02,2885.17,2646.74,3030.68,599.92,598.30,29.88,0000 0000 0000 0000 000000
2017-10-26 05:57:16,0.08,1.79,0.00,17.32,20.67,23.63,14.04,47.63,1000.99,2056.01,2883.74,2645.76,3029.54,600.13,598.51,29.93,0000 0000 0000 0000 000000
2017-10-26 06:02:17,0.07,1.80,0.00,17.37,20.67,23.70,14.09,47.62,1000.98,2056.00,2882.38,2644.80,3028.38,600.30,598.53,29.98,0000 0000 0000 0000 000000
2017-10-26 06:07:18,0.07,1.80,0.00,17.39,20.69,23.68,13.98,47.48,1000.87,2056.00,2881.02,2643.85,3027.24,599.99,598.13,30.03,0000 0000 0000 0000 000000
2017-10-26 06:12:20,0.08,1.80,0.00,17.38,20.69,23.69,14.02,47.54,1000.84,2056.00,2879.65,2642.87,3026.02,600.02,598.00,30.08,0000 0000 0000 0000 000000
2017-10-26 06:17:21,0.07,1.81,0.00,17.44,20.69,23.67,14.02,47.40,1000.67,2056.00,2878.49,2641.95,3024.87,600.23,598.24,30.13,0000 0000 0000 0000 000000
2017-10-26 06:22:22,0.07,1.81,0.00,17.42,20.72,23.67,13.97,47.51,1000.58,2056.00,2877.06,2640.99,3023.77,600.00,597.86,30.18,0000 0000 0000 0000 000000
2017-10-26 06:27:23,0.08,1.82,0.00,17.39,20.72,23.70,13.90,47.48,1000.53,2056.00,2875.69,2640.05,3022.59,599.84,597.78,30.23,0000 0000 0000 0000 000000
2017-10-26 06:32:25,0.08,1.82,0.00,17.47,20.73,23.71,14.00,47.59,1000.51,2055.99,2874.33,2639.11,3021.39,600.05,597.80,30.28,0000 0000 0000 0000 000000
2017-10-26 06:37:26,0.07,1.82,0.00,17.48,20.74,23.73,14.07,47.45,1000.55,2055.99,2872.98,2638.13,3020.30,600.20,598.06,30.33,0000 0000 0000 0000 000000
2017-10-26 06:42:27,0.08,1.83,0.00,17.51,20.75,23.76,14.02,47.34,1000.81,2055.99,2871.52,2637.07,3018.96,599.94,597.67,30.38,0000 0000 0000 0000 000000
2017-10-26 06:47:28,0.08,1.83,0.00,17.52,20.77,23.73,14.01,47.30,1000.98,2055.99,2870.10,2636.11,3017.77,599.99,597.97,30.43,0000 0000 0000 0000 000000
2017-10-26 06:52:30,0.08,1.84,0.00,17.54,20.78,23.74,14.08,47.48,1000.99,2055.98,2868.74,2635.14,3016.64,600.10,598.07,30.48,0000 0000 0000 0000 000000
2017-10-26 06:57:31,0.07,1.84,0.00,17.50,20.79,23.75,13.96,47.33,1001.01,2055.95,2867.52,2634.31,3015.52,600.13,598.18,30.53,0000 0000 0000 0000 000000
2017-10-26 07:02:33,0.07,1.84,0.00,17.58,20.81,23.80,13.94,47.36,1001.00,2055.95,2866.20,2633.38,3014.39,599.82,597.60,30.58,0000 0000 0000 0000 000000
2017-10-26 07:07:34,0.06,1.85,0.00,17.60,20.82,23.79,13.98,47.37,1000.99,2055.85,2864.81,2632.41,3013.19,599.97,597.73,30.63,0000 0000 0000 0000 000000
2017-10-26 07:12:35,0.08,1.85,0.00,17.60,20.84,23.81,14.03,47.38,1000.99,2055.86,2863.53,2631.47,3012.08,600.15,598.04,30.68,0000 0000 0000 0000 000000
2017-10-26 07:17:37,0.05,1.85,0.00,17.67,20.85,23.84,13.96,47.43,1000.99,2055.74,2862.26,2630.62,3011.01,599.94,597.48,30.73,0000 0000 0000 0000 000000
2017-10-26 07:22:38,0.04,1.86,0.00,17.60,20.87,23.86,14.01,47.55,1000.99,2055.32,2860.89,2629.68,3009.87,600.12,597.86,30.78,0000 0000 0000 0000 000000
2017-10-26 07:27:39,0.05,1.86,0.00,17.62,20.89,23.89,13.98,47.55,1000.91,2055.09,2859.62,2628.75,3008.75,600.13,597.69,30.83,0000 0000 0000 0000 000000
2017-10-26 07:32:41,0.08,1.86,0.00,17.66,20.90,23.90,13.98,47.53,1000.94,2055.02,2858.22,2627.72,3007.63,599.67,597.28,30.88,0000 0000 0000 0000 000000
2017-10-26 07:37:42,0.07,1.87,0.00,17.63,20.92,23.93,14.04,47.60,1000.99,2055.01,2856.78,2626.77,3006.49,600.12,597.71,30.93,0000 0000 0000 0000 000000
2017-10-26 07:42:43,0.07,1.87,0.00,17.63,20.93,23.95,14.07,47.77,1000.97,2055.00,2855.43,2625.84,3005.37,600.19,597.91,30.98,0000 0000 0000 0000 000000
2017-10-26 07:47:44,0.07,1.88,0.00,17.65,20.94,23.97,14.03,47.64,1000.78,2055.00,2854.08,2624.88,3004.26,600.36,597.92,31.03,0000 0000 0000 0000 000000
2017-10-26 07:52:45,0.08,1.88,0.00,17.61,20.96,24.00,13.98,47.60,1000.80,2055.00,2852.72,2623.93,3003.12,600.11,597.81,31.08,0000 0000 0000 0000 000000
2017-10-26 07:57:46,0.07,1.88,0.00,17.60,20.97,24.02,13.96,47.69,1000.80,2055.00,2851.43,2623.06,3001.94,599.90,597.53,31.13,0000 0000 0000 0000 000000
2017-10-26 08:02:47,0.07,1.89,0.00,17.59,20.98,24.04,14.02,47.83,1000.52,2055.00,2850.09,2622.25,3000.80,600.31,597.76,31.18,0000 0000 0000 0000 000000
2017-10-26 08:07:49,0.08,1.89,0.00,17.58,20.99,24.13,14.03,47.76,1000.50,2054.99,2848.75,2621.29,2999.77,600.29,597.82,31.23,0000 0000 0000 0000 000000
2017-10-26 08:12:50,0.08,1.89,0.00,17.56,20.99,24.19,14.06,47.76,1000.27,2054.99,2847.43,2620.42,2998.61,600.11,597.62,31.28,0000 0000 0000 0000 000000
2017-10-26 08:17:51,0.09,1.90,0.00,17.55,20.99,24.20,14.01,47.98,1000.17,2054.99,2845.82,2619.35,2997.35,600.03,597.37,31.33,0000 0000 0000 0000 000000
2017-10-26 08:22:53,0.08,1.90,0.00,17.49,21.00,24.26,14.00,47.85,1000.26,2054.99,2844.33,2618.22,2996.03,600.10,597.71,31.38,0000 0000 0000 0000 000000
2017-10-26 08:27:54,0.08,1.91,0.00,17.49,21.00,24.35,14.07,48.11,1000.28,2054.98,2842.93,2617.20,2994.77,600.29,597.70,31.43,0000 0000 0000 0000 000000
2017-10-26 08:32:55,0.08,1.91,0.00,17.49,21.01,24.30,14.06,47.89,1000.33,2054.98,2841.55,2616.28,2993.63,600.22,597.79,31.48,0000 0000 0000 0000 000000
2017-10-26 08:37:57,0.07,1.92,0.00,17.45,21.00,24.34,14.06,47.83,1000.49,2054.97,2840.28,2615.33,2992.49,600.21,597.91,31.53,0000 0000 0000 0000 000000
2017-10-26 08:42:58,0.08,1.92,0.00,17.43,21.00,24.36,14.00,47.88,1000.42,2054.99,2839.03,2614.41,2991.47,600.00,597.79,31.58,0000 0000 0000 0000 000000
2017-10-26 08:48:00,0.08,1.92,0.00,17.43,20.99,24.34,14.02,47.94,1000.06,2054.99,2837.75,2613.55,2990.38,600.07,597.77,31.63,0000 0000 0000 0000 000000
2017-10-26 08:53:01,0.07,1.93,0.00,17.36,20.99,24.36,14.04,48.14,1000.01,2054.99,2836.39,2612.65,2989.28,600.19,597.80,31.68,0000 0000 0000 0000 000000
2017-10-26 08:58:02,0.07,1.93,0.00,17.37,20.99,24.34,14.06,48.03,1000.06,2054.99,2835.04,2611.73,2988.12,599.97,597.61,31.73,0000 0000 0000 0000 000000
2017-10-26 09:03:03,0.06,1.94,0.00,17.34,20.99,24.35,14.09,47.88,1000.13,2054.99,2833.85,2610.88,2987.13,600.20,597.99,31.78,0000 0000 0000 0000 000000
2017-10-26 09:08:05,0.08,1.94,0.00,17.32,20.97,24.32,14.01,48.00,1000.19,2054.99,2832.62,2609.96,2986.05,599.97,597.92,31.83,0000 0000 0000 0000 000000
2017-10-26 09:13:06,0.07,1.94,0.00,17.36,20.97,24.32,14.07,47.96,1000.48,2054.99,2831.31,2609.09,2985.00,599.97,597.90,31.88,0000 0000 0000 0000 000000
2017-10-26 09:18:07,0.07,1.95,0.00,17.30,20.95,24.29,14.11,48.16,1000.44,2054.99,2830.09,2608.24,2984.02,600.07,598.12,31.93,0000 0000 0000 0000 000000
2017-10-26 09:23:08,0.07,1.95,0.00,17.29,20.94,24.29,14.03,48.01,1000.17,2054.99,2828.93,2607.51,2983.07,600.29,598.21,31.98,0000 0000 0000 0000 000000
2017-10-26 09:28:09,0.06,1.95,0.00,17.33,20.94,24.25,14.13,48.08,1000.30,2054.99,2827.81,2606.75,2982.13,600.30,598.06,32.03,0000 0000 0000 0000 000000
2017-10-26 09:33:10,0.06,1.96,0.00,17.26,20.92,24.22,14.09,47.80,1000.46,2054.99,2826.62,2606.00,2981.16,600.09,598.22,32.08,0000 0000 0000 0000 000000
2017-10-26 09:38:12,0.07,1.96,0.00,17.31,20.92,24.26,14.06,47.81,1000.50,2054.99,2825.50,2605.17,2980.27,600.02,597.98,32.14,0000 0000 0000 0000 000000
2017-10-26 09:43:13,0.07,1.96,0.00,17.34,20.90,24.19,14.05,47.73,1000.50,2054.99,2824.32,2604.44,2979.31,599.97,598.06,32.19,0000 0000 0000 0000 000000
2017-10-26 09:48:14,0.06,1.97,0.00,17.32,20.89,24.16,14.04,47.68,1000.48,2055.00,2823.11,2603.65,2978.33,600.07,598.04,32.24,0000 0000 0000 0000 000000
2017-10-26 09:53:15,0.05,1.97,0.00,17.36,20.89,24.16,14.01,47.66,1000.47,2055.00,2821.97,2602.92,2977.36,599.92,597.91,32.29,0000 0000 0000 0000 000000
2017-10-26 09:58:17,0.07,1.98,0.00,17.38,20.89,24.12,13.98,47.58,1000.49,2055.01,2820.89,2602.06,2976.44,600.13,597.98,32.34,0000 0000 0000 0000 000000
2017-10-26 10:03:18,0.08,1.98,0.00,17.39,20.88,24.10,14.02,47.70,1000.50,2055.02,2819.63,2601.25,2975.51,600.05,597.96,32.39,0000 0000 0000 0000 000000
2017-10-26 10:08:19,0.07,1.98,0.00,17.39,20.87,24.09,14.04,47.77,1000.45,2055.04,2818.41,2600.45,2974.45,599.94,597.89,32.44,0000 0000 0000 0000 000000
2017-10-26 10:13:20,0.07,1.99,0.00,17.39,20.87,24.01,13.97,47.64,1000.49,2055.02,2817.20,2599.62,2973.41,599.96,597.92,32.49,0000 0000 0000 0000 000000
2017-10-26 10:18:22,0.06,1.99,0.00,17.43,20.87,23.97,14.02,47.56,1000.49,2055.03,2815.96,2598.73,2972.28,600.02,597.93,32.54,0000 0000 0000 0000 000000
2017-10-26 10:23:23,0.07,1.99,0.00,17.42,20.87,23.94,13.91,47.60,1000.28,2055.05,2814.72,2597.86,2971.28,599.65,597.38,32.59,0000 0000 0000 0000 000000
2017-10-26 10:28:25,0.06,2.00,0.00,17.45,20.87,23.95,14.03,47.68,1000.33,2055.05,2813.49,2596.97,2970.13,600.03,597.68,32.64,0000 0000 0000 0000 000000
2017-10-26 10:33:26,0.07,2.00,0.00,17.46,20.88,23.96,14.07,47.67,1000.47,2055.04,2812.25,2596.06,2969.06,600.23,597.94,32.69,0000 0000 0000 0000 000000
2017-10-26 10:38:28,0.07,2.01,0.00,17.45,20.88,23.95,13.93,47.59,1000.50,2055.04,2810.99,2595.18,2968.01,600.06,597.85,32.74,0000 0000 0000 0000 000000
2017-10-26 10:43:29,0.07,2.01,0.00,17.54,20.89,23.93,13.96,47.41,1000.54,2055.04,2809.74,2594.43,2967.02,599.80,597.41,32.79,0000 0000 0000 0000 000000
2017-10-26 10:48:30,0.07,2.01,0.00,17.54,20.89,23.91,14.02,47.48,1000.66,2055.06,2808.58,2593.54,2966.02,600.10,597.82,32.84,0000 0000 0000 0000 000000
2017-10-26 10:53:31,0.06,2.02,0.00,17.57,20.89,23.87,13.98,47.40,1000.63,2055.04,2807.44,2592.73,2965.02,600.12,597.77,32.89,0000 0000 0000 0000 000000
2017-10-26 10:58:32,0.06,2.02,0.00,17.62,20.90,23.87,14.04,47.36,1000.52,2055.05,2806.26,2591.89,2964.02,600.15,597.61,32.94,0000 0000 0000 0000 000000
2017-10-26 11:03:34,0.07,2.02,0.00,17.59,20.92,23.88,13.98,47.48,1000.50,2055.02,2804.99,2591.04,2963.00,599.81,597.36,33.00,0000 0000 0000 0000 000000
2017-10-26 11:08:35,0.07,2.03,0.00,17.62,20.92,23.89,14.04,47.52,1000.50,2055.03,2803.78,2590.17,2961.98,600.14,597.68,33.05,0000 0000 0000 0000 000000
2017-10-26 11:13:36,0.07,2.03,0.00,17.66,20.93,23.91,13.98,47.42,1000.51,2055.00,2802.60,2589.31,2960.95,599.87,597.24,33.10,0000 0000 0000 0000 000000
2017-10-26 11:18:37,0.07,2.03,0.00,17.66,20.94,23.90,13.98,47.48,1000.50,2055.00,2801.31,2588.39,2959.89,600.04,597.42,33.15,0000 0000 0000 0000 000000
2017-10-26 11:23:39,0.07,2.04,0.00,17.67,20.96,23.93,14.08,47.72,1000.49,2055.00,2800.06,2587.53,2958.77,600.15,597.53,33.20,0000 0000 0000 0000 000000
2017-10-26 11:28:40,0.08,2.04,0.00,17.68,20.97,23.94,14.03,47.52,1000.50,2055.00,2798.77,2586.64,2957.70,599.89,597.16,33.25,0000 0000 0000 0000 000000
2017-10-26 11:33:41,0.08,2.05,0.00,17.69,20.98,23.96,13.97,47.56,1000.50,2055.00,2797.48,2585.68,2956.58,599.97,597.26,33.30,0000 0000 0000 0000 000000
2017-10-26 11:38:43,0.06,2.05,0.00,17.67,20.99,23.99,13.96,47.56,1000.55,2055.00,2796.31,2584.81,2955.55,599.81,597.18,33.35,0000 0000 0000 0000 000000
2017-10-26 11:43:44,0.07,2.05,0.00,17.71,21.00,23.99,13.97,47.53,1000.56,2054.99,2795.04,2583.93,2954.50,599.61,596.91,33.40,0000 0000 0000 0000 000000
2017-10-26 11:48:45,0.08,2.06,0.00,17.70,21.02,24.01,14.06,47.56,1000.77,2054.98,2793.74,2583.02,2953.35,600.17,597.60,33.45,0000 0000 0000 0000 000000
2017-10-26 11:53:47,0.07,2.06,0.00,17.74,21.02,24.00,14.03,47.62,1000.98,2054.97,2792.57,2582.12,2952.37,599.91,597.38,33.50,0000 0000 0000 0000 000000
2017-10-26 11:58:48,0.07,2.07,0.00,17.82,21.04,24.03,14.00,47.48,1000.93,2054.97,2791.34,2581.21,2951.28,599.97,597.26,33.55,0000 0000 0000 0000 000000
2017-10-26 12:03:49,0.07,2.07,0.00,17.78,21.04,24.02,14.03,47.52,1000.83,2054.95,2790.08,2580.38,2950.23,600.03,597.28,33.60,0000 0000 0000 0000 000000
2017-10-26 12:08:51,0.06,2.07,0.00,17.81,21.07,24.05,13.99,47.42,1000.73,2054.82,2788.70,2579.47,2949.04,599.67,596.96,33.65,0000 0000 0000 0000 000000
2017-10-26 12:13:52,0.06,2.08,0.00,17.84,21.07,24.05,13.93,47.42,1000.76,2054.65,2787.48,2578.54,2947.96,600.24,597.36,33.70,0000 0000 0000 0000 000000
2017-10-26 12:18:53,0.03,2.08,0.00,17.84,21.09,24.07,13.92,47.46,1000.66,2054.34,2786.26,2577.61,2946.88,599.84,597.04,33.75,0000 0000 0000 0000 000000
2017-10-26 12:23:55,0.06,2.08,0.00,17.88,21.10,24.06,13.98,47.56,1000.55,2054.19,2784.99,2576.81,2945.85,600.09,597.04,33.80,0000 0000 0000 0000 000000
2017-10-26 12:28:56,0.06,2.08,0.00,17.88,21.12,24.07,13.94,47.39,1000.52,2054.10,2783.86,2575.96,2944.86,600.07,596.96,33.85,0000 0000 0000 0000 000000
2017-10-26 12:33:57,0.07,2.09,0.00,17.93,21.14,24.07,13.93,47.32,1000.50,2054.02,2782.52,2575.00,2943.80,600.08,596.97,33.91,0000 0000 0000 0000 000000
2017-10-26 12:38:59,0.07,2.09,0.00,17.93,21.16,24.11,14.05,47.43,1000.52,2054.00,2781.30,2574.07,2942.73,600.37,597.14,33.96,0000 0000 0000 0000 000000
2017-10-26 12:44:00,0.07,2.10,0.00,18.00,21.17,24.13,14.00,47.33,1000.53,2054.00,2780.05,2573.19,2941.76,600.19,596.81,34.01,0000 0000 0000 0000 000000
2017-10-26 12:49:01,0.08,2.10,0.00,17.99,21.19,24.16,14.05,47.38,1000.62,2054.00,2778.84,2572.36,2940.66,600.28,596.94,34.06,0000 0000 0000 0000 000000
2017-10-26 12:54:03,0.08,2.10,0.00,18.08,21.22,24.19,13.94,47.25,1000.54,2054.00,2777.52,2571.42,2939.56,599.94,596.47,34.11,0000 0000 0000 0000 000000